Location: Unspecified
(0.0000°N, 0.0000°E)
Time: 13:43:06
(UTC+00:00)

Tiros 1 despin weight - Pass Details

Date: 28 November 2019
Orbit: 594 x 642 km, 48.2° (Epoch: 08 December)

Event Time Altitude Azimuth Distance (km) Brightness Sun altitude
Rises 18:32:20 0° 316° (NW) 2,856 ? -10.3°
Reaches altitude 10° 18:34:37 10° 313° (NW) 1,962 ? -10.9°
Maximum altitude 18:39:05 65° 231° (SW) 682 ? -11.9°
Drops below altitude 10° 18:43:39 10° 149° (SSE) 2,000 ? -12.9°
Sets 18:46:01 0° 146° (SE) 2,916 ? -13.5°
